Overview Statistics Trail Chart Weather Telemetry Raw packets
 

This is the latest recevied weather packets stored in our database for station/object K7MT-WX. If no packets are shown the sender has not sent any weather packets the latest 10 day(s).

<< 17 18 19 20 21 22 23 >>
Time Temp. Humidity Pressure Rain* Wind** Luminosity Snow
1788209315 23.89° C 26% 1015.8 hPa 0 mm - - -
1788208415 23.89° C 27% 1015.9 hPa 0 mm - - -
1788207515 23.33° C 26% 1016.1 hPa 0 mm - - -
1788206615 23.33° C 27% 1016.2 hPa 0 mm - - -
1788205715 22.78° C 28% 1016.5 hPa 0 mm - - -
1788204815 22.22° C 27% 1016.6 hPa 0 mm - - -
1788203915 22.22° C 28% 1016.9 hPa 0 mm - - -
1788203015 21.67° C 30% 1017.1 hPa 0 mm - - -
1788202115 21.67° C 30% 1017.4 hPa 0 mm - - -
1788201215 21.67° C 35% 1017.6 hPa 0 mm - - -
1788200315 21.11° C 35% 1017.8 hPa 0 mm - - -
1788199415 20.56° C 36% 1018.1 hPa 0 mm - - -
1788198515 20° C 36% 1018.2 hPa 0 mm - - -
1788197615 20° C 39% 1018.3 hPa 0 mm - - -
1788196715 19.44° C 41% 1018.5 hPa 0 mm - - -
1788195815 18.33° C 43% 1018.6 hPa 0 mm - - -
1788194915 18.33° C 48% 1018.6 hPa 0 mm - - -
1788194015 16.67° C 53% 1018.7 hPa 0 mm - - -
1788193115 16.11° C 48% 1018.8 hPa 0 mm - - -
1788192215 15.56° C 52% 1018.8 hPa 0 mm - - -
1788191315 15° C 54% 1018.8 hPa 0 mm - - -
1788190415 13.33° C 61% 1019 hPa 0 mm - - -
1788189515 12.78° C 61% 1019 hPa 0 mm - - -
1788188615 11.67° C 64% 1018.9 hPa 0 mm - - -
1788187715 10° C 70% 1019 hPa 0 mm - - -

* Rain latest hour (hover to see other rain measurements)
** Current wind speed in m/s (hover to see current wind gust speed)